User: anonymous   Login
Location: Sungai Kamana Besar
(2.6333°N, 113.4333°E)
Time: 09:14:07
(UTC+00:00)
Language:

Cosmos 1833 Rocket - Orbit

View from above orbital plane
View from above orbital plane
View from above satellite
View from above satellite

Ground track
Ground track

The orbit data is extracted from the following two-line orbital elements,

1 17590U 87027B   22227.67211887 -.00000109  00000-0 -30391-4 0  9993
2 17590  71.0033 139.3333 0007028 296.7164  63.3240 14.16830171830949
Epoch (UTC): 15 August 2022 16:07:51
Eccentricity: 0.0007028
inclination: 71.0033°
perigee height: 831 km
apogee height: 841 km
right ascension of ascending node: 139.3333°
argument of perigee: 296.7164°
revolutions per day: 14.16830171
mean anomaly at epoch: 63.3240°
orbit number at epoch: 83094

The dashed part of the orbit path shows where the satellite is in the earth's shadow,  

DLR